Location: Bégole
(43.1574°N, 0.3291°E)
Time: 12:08:47
(UTC+00:00)

Cosmos 1340 Rocket - Pass Details

Date: 28 January 2023
Orbit: 515 x 558 km, 81.2° (Epoch: 19 March)

Event Time Altitude Azimuth Distance (km) Brightness Sun altitude
Rises 17:56:04 0° 169° (S) 2,619 6.4 -9.5°
Reaches altitude 10° 17:58:17 10° 161° (SSE) 1,739 5.3 -9.9°
Maximum altitude 18:01:48 36° 94° (E) 837 3.3 -10.5°
Drops below altitude 10° 18:05:21 10° 27° (NNE) 1,767 5.0 -11.2°
Enters shadow 18:07:00 - 20° (NNE) 2,415 5.8 -11.5°
